Previsão horária em Bar-le-Duc

Hoje, 21 Outubro, Quarta-feira

Tempo Temperatura Precipitação Vento Pressão Humidade
00:00 +12°C° 0.3 mm 4 m/s 735 mmHg 71%
01:00 +12°C° 0.1 mm 4 m/s 734 mmHg 68%
02:00 +13°C° 0.1 mm 4 m/s 734 mmHg 64%
03:00 +13°C° 0.1 mm 4 m/s 733 mmHg 61%
04:00 +14°C° 0 mm 5 m/s 733 mmHg 57%
05:00 +15°C° 0 mm 6 m/s 733 mmHg 52%
06:00 +16°C° 0 mm 7 m/s 733 mmHg 48%
07:00 +16°C° 0 mm 8 m/s 734 mmHg 51%
08:00 +16°C° 0 mm 8 m/s 734 mmHg 54%
09:00 +17°C° 0 mm 9 m/s 734 mmHg 58%
10:00 +18°C° 0 mm 9 m/s 734 mmHg 58%
11:00 +19°C° 0 mm 10 m/s 735 mmHg 58%
12:00 +21°C° 0 mm 10 m/s 735 mmHg 58%
13:00 +19°C° 0.1 mm 9 m/s 735 mmHg 62%
14:00 +20°C° 0.1 mm 8 m/s 735 mmHg 65%
15:00 +20°C° 0.1 mm 7 m/s 735 mmHg 69%
16:00 +18°C° 0.3 mm 7 m/s 736 mmHg 74%
17:00 +17°C° 0.3 mm 7 m/s 736 mmHg 80%
18:00 +16°C° 0.3 mm 7 m/s 737 mmHg 85%
19:00 +15°C° 0.1 mm 6 m/s 737 mmHg 86%
20:00 +15°C° 0.1 mm 5 m/s 738 mmHg 86%
21:00 +15°C° 0.1 mm 5 m/s 738 mmHg 86%
22:00 +15°C° 0 mm 5 m/s 738 mmHg 86%
23:00 +15°C° 0 mm 4 m/s 739 mmHg 87%

Amanhã, 22 Outubro, Quinta-feira

Tempo Temperatura Precipitação Vento Pressão Humidade
00:00 +14°C° 0 mm 4 m/s 739 mmHg 87%
01:00 +14°C° 0 mm 4 m/s 739 mmHg 86%
02:00 +13°C° 0 mm 4 m/s 739 mmHg 85%
03:00 +13°C° 0 mm 4 m/s 738 mmHg 84%
04:00 +13°C° 0 mm 4 m/s 739 mmHg 84%
05:00 +13°C° 0 mm 4 m/s 739 mmHg 83%
06:00 +14°C° 0 mm 4 m/s 739 mmHg 82%
07:00 +14°C° 0.1 mm 5 m/s 739 mmHg 81%
08:00 +15°C° 0.1 mm 6 m/s 739 mmHg 80%
09:00 +16°C° 0.1 mm 7 m/s 740 mmHg 78%
10:00 +16°C° 0.1 mm 6 m/s 740 mmHg 79%
11:00 +17°C° 0.1 mm 5 m/s 740 mmHg 80%
12:00 +18°C° 0.1 mm 4 m/s 740 mmHg 81%
13:00 +17°C° 0.6 mm 4 m/s 740 mmHg 84%
14:00 +16°C° 0.6 mm 5 m/s 739 mmHg 86%
15:00 +15°C° 0.6 mm 5 m/s 739 mmHg 89%
16:00 +15°C° 0.7 mm 6 m/s 740 mmHg 90%
17:00 +15°C° 0.7 mm 6 m/s 740 mmHg 91%
18:00 +15°C° 0.7 mm 6 m/s 740 mmHg 92%
19:00 +14°C° 0.6 mm 6 m/s 740 mmHg 91%
20:00 +14°C° 0.6 mm 6 m/s 740 mmHg 91%
21:00 +14°C° 0.6 mm 5 m/s 740 mmHg 91%
22:00 +14°C° 0.2 mm 5 m/s 740 mmHg 92%
23:00 +13°C° 0.2 mm 4 m/s 740 mmHg 93%

Depois de amanhã, 23 Outubro, Sexta-feira

Tempo Temperatura Precipitação Vento Pressão Humidade
00:00 +13°C° 0.2 mm 3 m/s 740 mmHg 93%
01:00 +13°C° 0 mm 3 m/s 740 mmHg 94%
02:00 +13°C° 0 mm 3 m/s 740 mmHg 95%
03:00 +12°C° 0 mm 3 m/s 740 mmHg 95%
04:00 +13°C° 0.2 mm 3 m/s 740 mmHg 96%
05:00 +13°C° 0.2 mm 3 m/s 740 mmHg 96%
06:00 +13°C° 0.2 mm 4 m/s 739 mmHg 96%
07:00 +13°C° 0.6 mm 4 m/s 739 mmHg 95%
08:00 +13°C° 0.6 mm 4 m/s 739 mmHg 95%
09:00 +13°C° 0.6 mm 4 m/s 739 mmHg 94%
10:00 +13°C° 0.8 mm 4 m/s 739 mmHg 93%
11:00 +13°C° 0.8 mm 4 m/s 739 mmHg 93%
12:00 +13°C° 0.8 mm 4 m/s 739 mmHg 92%
13:00 +14°C° 0.1 mm 4 m/s 739 mmHg 90%
14:00 +14°C° 0.1 mm 4 m/s 739 mmHg 89%
15:00 +15°C° 0.1 mm 4 m/s 739 mmHg 87%
16:00 +14°C° 0.1 mm 4 m/s 740 mmHg 88%
17:00 +13°C° 0.1 mm 4 m/s 740 mmHg 90%
18:00 +12°C° 0.1 mm 3 m/s 740 mmHg 91%
19:00 +11°C° 0 mm 4 m/s 741 mmHg 91%
20:00 +11°C° 0 mm 4 m/s 741 mmHg 91%
21:00 +11°C° 0 mm 4 m/s 741 mmHg 91%
22:00 +10°C° 0 mm 4 m/s 742 mmHg 92%
23:00 +10°C° 0 mm 4 m/s 742 mmHg 93%

24 Outubro, Sábado

Tempo Temperatura Precipitação Vento Pressão Humidade
00:00 +8°C° 0 mm 5 m/s 742 mmHg 94%
01:00 +8°C° 0 mm 5 m/s 742 mmHg 94%
02:00 +8°C° 0 mm 5 m/s 743 mmHg 95%
03:00 +7°C° 0 mm 5 m/s 743 mmHg 95%
04:00 +7°C° 0 mm 5 m/s 743 mmHg 95%
05:00 +7°C° 0 mm 5 m/s 743 mmHg 95%
06:00 +7°C° 0 mm 4 m/s 744 mmHg 95%
07:00 +8°C° 0 mm 4 m/s 744 mmHg 94%
08:00 +8°C° 0 mm 4 m/s 744 mmHg 93%
09:00 +10°C° 0 mm 4 m/s 744 mmHg 91%
10:00 +11°C° 0 mm 4 m/s 744 mmHg 90%
11:00 +10°C° 0 mm 5 m/s 744 mmHg 89%
12:00 +12°C° 0 mm 5 m/s 744 mmHg 87%
13:00 +12°C° 0 mm 5 m/s 743 mmHg 86%
14:00 +12°C° 0 mm 5 m/s 743 mmHg 85%
15:00 +13°C° 0 mm 5 m/s 743 mmHg 84%
16:00 +12°C° 0 mm 4 m/s 743 mmHg 87%
17:00 +11°C° 0 mm 4 m/s 742 mmHg 90%
18:00 +10°C° 0 mm 4 m/s 742 mmHg 93%
19:00 +10°C° 0 mm 4 m/s 742 mmHg 94%
20:00 +10°C° 0 mm 4 m/s 742 mmHg 95%
21:00 +10°C° 0 mm 4 m/s 742 mmHg 95%
22:00 +10°C° 0 mm 4 m/s 741 mmHg 95%
23:00 +10°C° 0 mm 3 m/s 741 mmHg 94%

25 Outubro, Domingo

Tempo Temperatura Precipitação Vento Pressão Humidade
00:00 +10°C° 0 mm 3 m/s 740 mmHg 93%
01:00 +9°C° 0 mm 3 m/s 740 mmHg 93%
02:00 +9°C° 0 mm 3 m/s 739 mmHg 93%
03:00 +9°C° 0 mm 3 m/s 739 mmHg 93%
04:00 +8°C° 0 mm 4 m/s 738 mmHg 91%
05:00 +8°C° 0 mm 4 m/s 738 mmHg 90%
06:00 +8°C° 0 mm 5 m/s 738 mmHg 89%
07:00 +9°C° 0 mm 5 m/s 737 mmHg 85%
08:00 +10°C° 0 mm 6 m/s 737 mmHg 81%
09:00 +11°C° 0 mm 7 m/s 737 mmHg 77%
10:00 +12°C° 0 mm 7 m/s 736 mmHg 71%
11:00 +15°C° 0 mm 7 m/s 736 mmHg 66%
12:00 +16°C° 0 mm 7 m/s 736 mmHg 61%
13:00 +15°C° 0 mm 7 m/s 736 mmHg 65%
14:00 +14°C° 0 mm 6 m/s 735 mmHg 68%
15:00 +14°C° 0 mm 5 m/s 735 mmHg 72%
16:00 +12°C° 0.1 mm 5 m/s 736 mmHg 78%
17:00 +10°C° 0.1 mm 5 m/s 736 mmHg 84%
18:00 +8°C° 0.1 mm 5 m/s 736 mmHg 90%
19:00 +8°C° 0.1 mm 4 m/s 737 mmHg 91%
20:00 +8°C° 0.1 mm 4 m/s 737 mmHg 92%
21:00 +9°C° 0.1 mm 3 m/s 737 mmHg 93%
22:00 +8°C° 0.1 mm 3 m/s 737 mmHg 94%
23:00 +7°C° 0.1 mm 4 m/s 737 mmHg 94%

26 Outubro, Segunda-feira

Tempo Temperatura Precipitação Vento Pressão Humidade
00:00 +7°C° 0.1 mm 4 m/s 737 mmHg 95%
01:00 +7°C° 0 mm 4 m/s 737 mmHg 95%
02:00 +8°C° 0 mm 3 m/s 737 mmHg 96%
03:00 +8°C° 0 mm 3 m/s 737 mmHg 96%
04:00 +8°C° 0 mm 3 m/s 737 mmHg 96%
05:00 +8°C° 0 mm 3 m/s 737 mmHg 96%
06:00 +8°C° 0 mm 3 m/s 737 mmHg 95%
07:00 +8°C° 0 mm 3 m/s 737 mmHg 94%
08:00 +8°C° 0 mm 3 m/s 737 mmHg 93%
09:00 +8°C° 0 mm 3 m/s 738 mmHg 91%
10:00 +9°C° 0 mm 3 m/s 738 mmHg 87%
11:00 +10°C° 0 mm 3 m/s 738 mmHg 83%
12:00 +11°C° 0 mm 4 m/s 738 mmHg 79%
13:00 +11°C° 0 mm 3 m/s 738 mmHg 78%
14:00 +11°C° 0 mm 3 m/s 738 mmHg 76%
15:00 +11°C° 0 mm 3 m/s 738 mmHg 74%
16:00 +10°C° 0 mm 2 m/s 739 mmHg 79%
17:00 +8°C° 0 mm 2 m/s 739 mmHg 84%
18:00 +7°C° 0 mm 2 m/s 740 mmHg 89%
19:00 +7°C° 0 mm 2 m/s 740 mmHg 89%
20:00 +6°C° 0 mm 2 m/s 740 mmHg 90%
21:00 +6°C° 0 mm 2 m/s 741 mmHg 91%
22:00 +6°C° 0 mm 2 m/s 741 mmHg 92%
23:00 +5°C° 0 mm 2 m/s 741 mmHg 92%

27 Outubro, Terça-feira

Tempo Temperatura Precipitação Vento Pressão Humidade
00:00 +5°C° 0 mm 2 m/s 742 mmHg 93%
01:00 +5°C° 0 mm 2 m/s 742 mmHg 93%
02:00 +5°C° 0 mm 2 m/s 742 mmHg 94%
03:00 +5°C° 0 mm 2 m/s 742 mmHg 94%
04:00 +5°C° 0 mm 2 m/s 742 mmHg 94%
05:00 +5°C° 0 mm 2 m/s 742 mmHg 95%
06:00 +3°C° 0 mm 3 m/s 742 mmHg 95%
07:00 +5°C° 0 mm 3 m/s 742 mmHg 92%
08:00 +6°C° 0 mm 4 m/s 742 mmHg 89%
09:00 +7°C° 0 mm 4 m/s 742 mmHg 85%
10:00 +8°C° 0 mm 4 m/s 742 mmHg 81%
11:00 +9°C° 0 mm 5 m/s 742 mmHg 76%
12:00 +10°C° 0 mm 5 m/s 742 mmHg 72%
13:00 +10°C° 0 mm 5 m/s 742 mmHg 73%
14:00 +10°C° 0 mm 5 m/s 742 mmHg 73%
15:00 +11°C° 0 mm 4 m/s 741 mmHg 74%
16:00 +11°C° 0 mm 4 m/s 741 mmHg 74%
17:00 +9°C° 0 mm 5 m/s 741 mmHg 75%
18:00 +9°C° 0 mm 5 m/s 741 mmHg 75%
19:00 +9°C° 0.1 mm 5 m/s 741 mmHg 77%
20:00 +9°C° 0.1 mm 5 m/s 741 mmHg 79%
21:00 +9°C° 0.1 mm 5 m/s 741 mmHg 81%
22:00 +9°C° 0 mm 5 m/s 741 mmHg 81%
23:00 +9°C° 0 mm 5 m/s 741 mmHg 82%
Mostrar mais